Weather History for Oakland, MD

Change the Weather History Date:

Sunday, February 24, 2013

  Actual Average (KMGW) Record (KMGW)
Temperature  
Mean Temperature 26 °F 36 °F  
Max Temperature 32 °F 45 °F 75 °F (1975)
Min Temperature 19 °F 27 °F 2 °F (1967)
Degree Days  
Heating Degree Days 40 29  
Month to date heating degree days 749  
Since 1 July heating degree days 3776  
Cooling Degree Days 0 0  
Month to date cooling degree days 0  
Year to date cooling degree days 0  
Moisture  
Dew Point 25 °F    
Average Humidity 98    
Maximum Humidity 100    
Minimum Humidity 80    
Precipitation  
Precipitation 0.00 in 0.09 in 0.73 in (1962)
Month to date precipitation 2.20  
Year to date precipitation 5.01  
Sea Level Pressure  
Sea Level Pressure 29.88 in    
Wind  
Wind Speed 8 mph (West)    
Max Wind Speed 17 mph    
Max Gust Speed 28 mph    
Visibility 6 miles    
Events Fog    
T = Trace of Precipitation, MM = Missing Value Source: NWS Daily Summary

Daily Weather History Graph

Daily Weather History Graph

Search for Another Location

Airport:

Trip Planner

Search our weather history database for the weather conditions in past years. The results will help you decide how hot, cold, wet, or windy it might be!

Date:

Astronomy

Feb. 24, 2013 Rise Set
Actual Time 6:57 AM EST 6:04 PM EST
Civil Twilight 6:30 AM EST 6:31 PM EST
Nautical Twilight 5:58 AM EST 7:02 PM EST
Astronomical Twilight 5:27 AM EST 7:33 PM EST
Moon 5:13 PM EST (2/24) 5:53 AM EST (2/24)
Length of Visible Light 12h 01m
Length of Day
11h 07m
Waxing Gibbous, 99% of the Moon is Illuminated
Feb 24
Waxing Gibbous
Feb 25
Full
Mar 4
Last Quarter
Mar 11
New
Mar 19
First Quarter

Hourly Weather History & Observations

Time (EST) Temp. Windchill Dew Point Humidity Pressure Visibility Wind Dir Wind Speed Gust Speed Precip Events Conditions
12:15 AM 32.0 °F 28.7 °F 32.0 °F 100% 29.77 in 2.5 mi WNW 3.5 mph - N/A   Overcast
12:35 AM 32.0 °F 28.7 °F 32.0 °F 100% 29.78 in 1.8 mi WNW 3.5 mph - N/A   Overcast
12:55 AM 32.0 °F 28.7 °F 32.0 °F 100% 29.80 in 1.5 mi WNW 3.5 mph - N/A   Overcast
1:15 AM 32.0 °F 28.7 °F 32.0 °F 100% 29.81 in 1.5 mi WNW 3.5 mph - N/A   Overcast
1:35 AM 32.0 °F 27.5 °F 32.0 °F 100% 29.80 in 3.0 mi West 4.6 mph - N/A   Overcast
1:55 AM 32.0 °F 27.5 °F 32.0 °F 100% 29.79 in 2.5 mi West 4.6 mph - N/A   Overcast
2:15 AM 32.0 °F 26.4 °F 32.0 °F 100% 29.79 in 1.8 mi West 5.8 mph - N/A   Overcast
2:35 AM 30.2 °F 24.3 °F 30.2 °F 100% 29.78 in 4.0 mi WNW 5.8 mph - N/A   Overcast
2:55 AM 30.2 °F 24.3 °F 30.2 °F 100% 29.79 in 5.0 mi West 5.8 mph - N/A   Overcast
3:15 AM 30.2 °F 24.3 °F 30.2 °F 100% 29.79 in 2.5 mi West 5.8 mph - N/A   Overcast
3:35 AM 30.2 °F 23.4 °F 30.2 °F 100% 29.78 in 1.0 mi West 6.9 mph - N/A   Overcast
3:55 AM 30.2 °F 21.9 °F 30.2 °F 100% 29.78 in 1.8 mi West 9.2 mph - N/A   Overcast
4:15 AM 28.4 °F 20.4 °F 28.4 °F 100% 29.78 in 0.5 mi West 8.1 mph - N/A Fog Light Freezing Fog
4:55 AM 28.4 °F 20.4 °F 28.4 °F 100% 29.79 in 2.0 mi West 8.1 mph - N/A   Overcast
5:15 AM 28.4 °F 22.2 °F 28.4 °F 100% 29.78 in 2.0 mi West 5.8 mph - N/A   Overcast
5:35 AM 28.4 °F 20.4 °F 28.4 °F 100% 29.80 in 2.0 mi WNW 8.1 mph - N/A   Overcast
5:55 AM 26.6 °F 18.2 °F 26.6 °F 100% 29.80 in 5.0 mi West 8.1 mph - N/A   Overcast
6:15 AM 26.6 °F 17.5 °F 26.6 °F 100% 29.80 in 5.0 mi WNW 9.2 mph - N/A   Overcast
6:35 AM 26.6 °F 18.2 °F 26.6 °F 100% 29.80 in 7.0 mi WNW 8.1 mph - N/A   Overcast
6:55 AM 26.6 °F 18.2 °F 26.6 °F 100% 29.80 in 5.0 mi WNW 8.1 mph - N/A   Overcast
7:15 AM 26.6 °F 18.2 °F 26.6 °F 100% 29.81 in 4.0 mi West 8.1 mph - N/A   Overcast
7:35 AM 26.6 °F 17.5 °F 26.6 °F 100% 29.81 in 5.0 mi West 9.2 mph 18.4 mph N/A   Overcast
7:55 AM 26.6 °F 15.7 °F 26.6 °F 100% 29.82 in 5.0 mi West 12.7 mph 20.7 mph N/A   Overcast
8:15 AM 26.6 °F 15.2 °F 26.6 °F 100% 29.83 in 5.0 mi West 13.8 mph 20.7 mph N/A   Overcast
8:30 AM 26.6 °F 14.3 °F 26.6 °F 100% 29.83 in 7.0 mi West 16.1 mph 23.0 mph N/A   Overcast
8:55 AM 26.6 °F 14.7 °F 26.6 °F 100% 29.84 in 5.0 mi West 15.0 mph 21.9 mph N/A   Overcast
9:15 AM 26.6 °F 15.7 °F 26.6 °F 100% 29.84 in 5.0 mi West 12.7 mph 23.0 mph N/A   Overcast
9:35 AM 26.6 °F 16.2 °F 26.6 °F 100% 29.84 in 7.0 mi West 11.5 mph 27.6 mph N/A   Overcast
9:55 AM 26.6 °F 15.7 °F 26.6 °F 100% 29.84 in 10.0 mi West 12.7 mph 19.6 mph N/A   Overcast
10:15 AM 28.4 °F 18.5 °F 28.4 °F 100% 29.84 in 10.0 mi West 11.5 mph 23.0 mph N/A   Overcast
10:35 AM 28.4 °F 17.0 °F 26.6 °F 93% 29.84 in 10.0 mi West 15.0 mph 19.6 mph N/A   Mostly Cloudy
10:55 AM 28.4 °F 17.5 °F 24.8 °F 86% 29.84 in 10.0 mi West 13.8 mph 24.2 mph N/A   Overcast
11:15 AM 28.4 °F 16.6 °F 24.8 °F 86% 29.85 in 10.0 mi West 16.1 mph 25.3 mph N/A   Overcast
11:35 AM 28.4 °F 17.0 °F 24.8 °F 86% 29.85 in 10.0 mi West 15.0 mph 25.3 mph N/A   Overcast
11:55 AM 28.4 °F 17.0 °F 24.8 °F 86% 29.85 in 10.0 mi West 15.0 mph 25.3 mph N/A   Overcast
12:15 PM 28.4 °F 17.0 °F 23.0 °F 80% 29.85 in 10.0 mi West 15.0 mph 27.6 mph N/A   Overcast
12:35 PM 28.4 °F 17.5 °F 23.0 °F 80% 29.85 in 10.0 mi West 13.8 mph 24.2 mph N/A   Overcast
12:55 PM 26.6 °F 14.3 °F 24.8 °F 93% 29.85 in 10.0 mi West 16.1 mph 27.6 mph N/A   Overcast
1:15 PM 26.6 °F 16.2 °F 24.8 °F 93% 29.85 in 10.0 mi West 11.5 mph 26.5 mph N/A   Overcast
1:35 PM 26.6 °F 14.7 °F 24.8 °F 93% 29.85 in 7.0 mi West 15.0 mph 25.3 mph N/A   Overcast
1:55 PM 24.8 °F 12.9 °F 24.8 °F 100% 29.86 in 10.0 mi West 13.8 mph 20.7 mph N/A   Overcast
2:15 PM 24.8 °F 11.5 °F 23.0 °F 93% 29.86 in 10.0 mi West 17.3 mph 25.3 mph N/A   Overcast
2:35 PM 24.8 °F 12.9 °F 23.0 °F 93% 29.87 in 5.0 mi West 13.8 mph 23.0 mph N/A   Overcast
2:55 PM 23.0 °F 10.6 °F 23.0 °F 100% 29.88 in 5.0 mi West 13.8 mph 24.2 mph N/A   Overcast
3:15 PM 23.0 °F 11.7 °F 23.0 °F 100% 29.88 in 2.5 mi West 11.5 mph 19.6 mph N/A   Overcast
3:35 PM 23.0 °F 11.1 °F 23.0 °F 100% 29.89 in 1.2 mi West 12.7 mph 23.0 mph N/A   Overcast
3:55 PM 23.0 °F 10.6 °F 23.0 °F 100% 29.90 in 1.8 mi West 13.8 mph 21.9 mph N/A   Overcast
4:15 PM 23.0 °F 11.7 °F 23.0 °F 100% 29.90 in 1.0 mi WNW 11.5 mph 23.0 mph N/A   Overcast
4:35 PM 23.0 °F 13.1 °F 23.0 °F 100% 29.91 in 0.8 mi West 9.2 mph 19.6 mph N/A   Overcast
4:55 PM 23.0 °F 13.9 °F 23.0 °F 100% 29.92 in 0.5 mi WNW 8.1 mph 18.4 mph N/A Fog Light Freezing Fog
5:15 PM 23.0 °F 13.9 °F 23.0 °F 100% 29.93 in 1.0 mi WNW 8.1 mph 16.1 mph N/A   Mostly Cloudy
5:35 PM 23.0 °F 14.7 °F 23.0 °F 100% 29.94 in 0.5 mi WNW 6.9 mph 17.3 mph N/A Fog Light Freezing Fog
5:55 PM 21.2 °F 9.5 °F 21.2 °F 100% 29.95 in 1.0 mi WNW 11.5 mph 18.4 mph N/A   Overcast
6:15 PM 21.2 °F 11.7 °F 21.2 °F 100% 29.96 in 1.5 mi NW 8.1 mph 17.3 mph N/A   Overcast
6:35 PM 21.2 °F 8.3 °F 21.2 °F 100% 29.97 in 5.0 mi WNW 13.8 mph 21.9 mph N/A   Overcast
6:55 PM 21.2 °F 10.1 °F 21.2 °F 100% 29.98 in 7.0 mi West 10.4 mph 17.3 mph N/A   Overcast
7:15 PM 21.2 °F 10.9 °F 21.2 °F 100% 29.99 in 10.0 mi West 9.2 mph - N/A   Overcast
7:35 PM 21.2 °F 10.1 °F 21.2 °F 100% 29.99 in 7.0 mi West 10.4 mph - N/A   Overcast
7:55 PM 21.2 °F 10.1 °F 21.2 °F 100% 30.00 in 10.0 mi West 10.4 mph 17.3 mph N/A   Overcast
8:15 PM 21.2 °F 10.9 °F 21.2 °F 100% 30.01 in 10.0 mi West 9.2 mph - N/A   Overcast
8:35 PM 21.2 °F 11.7 °F 21.2 °F 100% 30.01 in 10.0 mi West 8.1 mph - N/A   Overcast
8:55 PM 21.2 °F 11.7 °F 21.2 °F 100% 30.01 in 10.0 mi WNW 8.1 mph 16.1 mph N/A   Overcast
9:15 PM 21.2 °F 10.9 °F 21.2 °F 100% 30.01 in 10.0 mi West 9.2 mph - N/A   Overcast
9:35 PM 21.2 °F 11.7 °F 21.2 °F 100% 30.00 in 10.0 mi West 8.1 mph - N/A   Mostly Cloudy
9:55 PM 19.4 °F 9.5 °F 19.4 °F 100% 30.01 in 10.0 mi West 8.1 mph - N/A   Scattered Clouds
10:15 PM 19.4 °F 9.5 °F 19.4 °F 100% 30.01 in 10.0 mi West 8.1 mph - N/A   Scattered Clouds
10:35 PM 19.4 °F 8.6 °F 19.4 °F 100% 30.00 in 10.0 mi West 9.2 mph - N/A   Mostly Cloudy
10:55 PM 19.4 °F 8.6 °F 19.4 °F 100% 30.00 in 10.0 mi West 9.2 mph - N/A   Mostly Cloudy
11:15 PM 21.2 °F 11.7 °F 21.2 °F 100% 30.01 in 10.0 mi West 8.1 mph - N/A   Overcast
11:35 PM 21.2 °F 12.6 °F 21.2 °F 100% 30.00 in 10.0 mi West 6.9 mph - N/A   Overcast
11:55 PM 21.2 °F 11.7 °F 21.2 °F 100% 30.01 in 10.0 mi West 8.1 mph - N/A   Overcast